Time,TemperatureF,DewpointF,PressureIn,WindDirection,WindDirectionDegrees,WindSpeedMPH,WindSpeedGustMPH,Humidity,HourlyPrecipIn,Conditions,Clouds,dailyrainin,SoftwareType,DateUTC
2013-03-04 00:01:00,36.0,27.0,29.95,WNW,301,0.0,5.0,69,0.00,,,0.00,,2013-03-04 05:01:00,
2013-03-04 00:11:00,36.0,27.0,29.95,WNW,301,0.0,5.0,69,0.00,,,0.00,,2013-03-04 05:11:00,
2013-03-04 00:22:00,35.0,26.0,29.95,NW,306,0.0,3.0,68,0.00,,,0.00,,2013-03-04 05:22:00,
2013-03-04 00:32:00,35.0,26.0,29.96,NNW,335,0.0,5.0,70,0.00,,,0.00,,2013-03-04 05:32:00,
2013-03-04 00:42:00,35.0,26.0,29.96,NNW,335,0.0,5.0,70,0.00,,,0.00,,2013-03-04 05:42:00,
2013-03-04 00:52:00,35.0,25.0,29.96,WNW,288,1.0,6.0,66,0.00,,,0.00,,2013-03-04 05:52:00,
2013-03-04 01:02:00,35.0,24.0,29.96,WNW,301,2.0,6.0,64,0.00,,,0.00,,2013-03-04 06:02:00,
2013-03-04 01:11:00,35.0,24.0,29.96,WNW,301,2.0,6.0,64,0.00,,,0.00,,2013-03-04 06:11:00,
2013-03-04 01:22:00,34.0,23.0,29.96,NW,309,0.0,4.0,65,0.00,,,0.00,,2013-03-04 06:22:00,
2013-03-04 01:32:00,34.0,24.0,29.96,NW,312,0.0,3.0,67,0.00,,,0.00,,2013-03-04 06:32:00,
2013-03-04 01:42:00,34.0,24.0,29.96,NW,312,0.0,3.0,67,0.00,,,0.00,,2013-03-04 06:42:00,
2013-03-04 01:51:00,33.0,24.0,29.96,NNW,328,0.0,2.0,69,0.00,,,0.00,,2013-03-04 06:51:00,
2013-03-04 02:02:00,33.0,24.0,29.97,WNW,283,0.0,3.0,70,0.00,,,0.00,,2013-03-04 07:02:00,
2013-03-04 02:11:00,33.0,24.0,29.97,WNW,283,0.0,3.0,70,0.00,,,0.00,,2013-03-04 07:11:00,
2013-03-04 02:22:00,32.0,24.0,29.96,West,275,0.0,1.0,73,0.00,,,0.00,,2013-03-04 07:22:00,
2013-03-04 02:32:00,31.0,24.0,29.96,NW,318,0.0,0.0,74,0.00,,,0.00,,2013-03-04 07:32:00,
2013-03-04 02:42:00,31.0,24.0,29.96,NW,318,0.0,0.0,74,0.00,,,0.00,,2013-03-04 07:42:00,
2013-03-04 02:52:00,31.0,23.0,29.96,WNW,301,1.0,3.0,73,0.00,,,0.00,,2013-03-04 07:52:00,
2013-03-04 03:02:00,31.0,23.0,29.97,WNW,299,0.0,3.0,71,0.00,,,0.00,,2013-03-04 08:02:00,
2013-03-04 03:12:00,31.0,23.0,29.97,WNW,299,0.0,3.0,71,0.00,,,0.00,,2013-03-04 08:12:00,
2013-03-04 03:22:00,31.0,22.0,29.97,NNW,333,1.0,3.0,69,0.00,,,0.00,,2013-03-04 08:22:00,
2013-03-04 03:32:00,31.0,22.0,29.97,WNW,300,0.0,3.0,68,0.00,,,0.00,,2013-03-04 08:32:00,
2013-03-04 03:42:00,31.0,22.0,29.97,WNW,300,0.0,3.0,68,0.00,,,0.00,,2013-03-04 08:42:00,
2013-03-04 03:52:00,31.0,22.0,29.97,NNW,336,0.0,3.0,68,0.00,,,0.00,,2013-03-04 08:52:00,
2013-03-04 04:02:00,31.0,21.0,29.98,NNE,12,0.0,3.0,67,0.00,,,0.00,,2013-03-04 09:02:00,
2013-03-04 04:11:00,31.0,21.0,29.98,NNE,12,0.0,3.0,67,0.00,,,0.00,,2013-03-04 09:11:00,
2013-03-04 04:22:00,30.0,21.0,29.98,WNW,291,0.0,1.0,68,0.00,,,0.00,,2013-03-04 09:22:00,
2013-03-04 04:32:00,30.0,20.0,29.98,NNE,32,0.0,4.0,67,0.00,,,0.00,,2013-03-04 09:32:00,
2013-03-04 04:42:00,30.0,20.0,29.98,NNE,32,0.0,4.0,67,0.00,,,0.00,,2013-03-04 09:42:00,
2013-03-04 04:52:00,30.0,20.0,29.99,NNW,330,1.0,3.0,66,0.00,,,0.00,,2013-03-04 09:52:00,
2013-03-04 05:01:00,30.0,20.0,30.00,West,278,0.0,2.0,67,0.00,,,0.00,,2013-03-04 10:01:00,
2013-03-04 05:12:00,30.0,20.0,30.00,West,278,0.0,2.0,67,0.00,,,0.00,,2013-03-04 10:12:00,
2013-03-04 05:22:00,30.0,20.0,30.00,WNW,295,0.0,4.0,67,0.00,,,0.00,,2013-03-04 10:22:00,
2013-03-04 05:32:00,30.0,21.0,30.00,West,280,1.0,5.0,68,0.00,,,0.00,,2013-03-04 10:32:00,
2013-03-04 05:42:00,30.0,21.0,30.00,West,280,1.0,5.0,68,0.00,,,0.00,,2013-03-04 10:42:00,
2013-03-04 05:52:00,30.0,20.0,30.01,NW,321,1.0,4.0,67,0.00,,,0.00,,2013-03-04 10:52:00,
2013-03-04 06:02:00,29.0,20.0,30.01,WNW,297,0.0,3.0,69,0.00,,,0.00,,2013-03-04 11:02:00,
2013-03-04 06:11:00,29.0,20.0,30.01,WNW,297,0.0,3.0,69,0.00,,,0.00,,2013-03-04 11:11:00,
2013-03-04 06:22:00,29.0,20.0,30.02,WNW,303,0.0,6.0,70,0.00,,,0.00,,2013-03-04 11:22:00,
2013-03-04 06:32:00,29.0,21.0,30.02,NNW,339,0.0,3.0,71,0.00,,,0.00,,2013-03-04 11:32:00,
2013-03-04 06:42:00,29.0,21.0,30.02,NNW,339,0.0,3.0,71,0.00,,,0.00,,2013-03-04 11:42:00,
2013-03-04 06:52:00,28.0,20.0,30.03,West,263,1.0,3.0,71,0.00,,,0.00,,2013-03-04 11:52:00,
2013-03-04 07:02:00,28.0,20.0,30.04,North,350,0.0,4.0,72,0.00,,,0.00,,2013-03-04 12:02:00,
2013-03-04 07:11:00,28.0,20.0,30.04,North,350,0.0,4.0,72,0.00,,,0.00,,2013-03-04 12:11:00,
2013-03-04 07:22:00,29.0,21.0,30.04,WNW,293,1.0,4.0,71,0.00,,,0.00,,2013-03-04 12:22:00,
2013-03-04 07:32:00,30.0,21.0,30.05,WNW,295,0.0,4.0,69,0.00,,,0.00,,2013-03-04 12:32:00,
2013-03-04 07:42:00,30.0,21.0,30.05,WNW,295,0.0,4.0,69,0.00,,,0.00,,2013-03-04 12:42:00,
2013-03-04 07:52:00,31.0,22.0,30.06,WNW,293,0.0,3.0,68,0.00,,,0.00,,2013-03-04 12:52:00,
2013-03-04 08:02:00,32.0,22.0,30.07,NW,309,0.0,5.0,67,0.00,,,0.00,,2013-03-04 13:02:00,
2013-03-04 08:11:00,32.0,22.0,30.07,NW,309,0.0,5.0,67,0.00,,,0.00,,2013-03-04 13:11:00,
2013-03-04 08:22:00,33.0,23.0,30.07,WNW,291,0.0,4.0,66,0.00,,,0.00,,2013-03-04 13:22:00,
2013-03-04 08:32:00,33.0,21.0,30.08,WNW,300,3.0,7.0,62,0.00,,,0.00,,2013-03-04 13:32:00,
2013-03-04 08:42:00,33.0,21.0,30.08,WNW,300,3.0,7.0,62,0.00,,,0.00,,2013-03-04 13:42:00,
2013-03-04 08:52:00,35.0,23.0,30.08,WNW,284,2.0,6.0,61,0.00,,,0.00,,2013-03-04 13:52:00,
2013-03-04 09:01:00,36.0,22.0,30.08,West,281,1.0,5.0,57,0.00,,,0.00,,2013-03-04 14:01:00,
2013-03-04 09:12:00,36.0,22.0,30.08,West,281,1.0,5.0,57,0.00,,,0.00,,2013-03-04 14:12:00,
2013-03-04 09:22:00,36.0,22.0,30.09,West,266,1.0,7.0,57,0.00,,,0.00,,2013-03-04 14:22:00,
2013-03-04 09:32:00,37.0,22.0,30.09,NNW,342,3.0,12.0,54,0.00,,,0.00,,2013-03-04 14:32:00,
2013-03-04 09:42:00,37.0,22.0,30.09,NNW,342,3.0,12.0,54,0.00,,,0.00,,2013-03-04 14:42:00,
2013-03-04 09:52:00,37.0,21.0,30.09,West,267,2.0,7.0,53,0.00,,,0.00,,2013-03-04 14:52:00,
2013-03-04 10:02:00,38.0,22.0,30.09,West,274,2.0,8.0,53,0.00,,,0.00,,2013-03-04 15:02:00,
2013-03-04 10:11:00,38.0,22.0,30.09,West,274,2.0,8.0,53,0.00,,,0.00,,2013-03-04 15:11:00,
2013-03-04 10:22:00,39.0,22.0,30.09,WNW,283,1.0,7.0,51,0.00,,,0.00,,2013-03-04 15:22:00,
2013-03-04 10:32:00,40.0,23.0,30.09,NW,309,2.0,8.0,50,0.00,,,0.00,,2013-03-04 15:32:00,
2013-03-04 10:42:00,40.0,23.0,30.09,NW,309,2.0,8.0,50,0.00,,,0.00,,2013-03-04 15:42:00,
2013-03-04 10:52:00,40.0,23.0,30.09,West,270,3.0,7.0,50,0.00,,,0.00,,2013-03-04 15:52:00,
2013-03-04 11:03:00,41.0,23.0,30.09,NW,317,3.0,8.0,49,0.00,,,0.00,,2013-03-04 16:03:00,
2013-03-04 11:11:00,41.0,23.0,30.09,NW,317,3.0,8.0,49,0.00,,,0.00,,2013-03-04 16:11:00,
2013-03-04 11:21:00,41.0,23.0,30.08,SSW,204,1.0,8.0,48,0.00,,,0.00,,2013-03-04 16:21:00,
2013-03-04 11:32:00,42.0,22.0,30.09,WNW,302,1.0,5.0,45,0.00,,,0.00,,2013-03-04 16:32:00,
2013-03-04 11:42:00,42.0,22.0,30.09,WNW,302,1.0,5.0,45,0.00,,,0.00,,2013-03-04 16:42:00,
2013-03-04 11:52:00,41.0,22.0,30.08,NNW,333,1.0,7.0,47,0.00,,,0.00,,2013-03-04 16:52:00,
2013-03-04 12:02:00,41.0,22.0,30.08,NNW,333,1.0,7.0,47,0.00,,,0.00,,2013-03-04 17:02:00,
2013-03-04 12:11:00,41.0,22.0,30.08,NNW,333,1.0,7.0,47,0.00,,,0.00,,2013-03-04 17:11:00,
2013-03-04 12:22:00,42.0,22.0,30.07,West,278,2.0,5.0,44,0.00,,,0.00,,2013-03-04 17:22:00,
2013-03-04 12:32:00,43.0,23.0,30.07,WSW,257,2.0,6.0,44,0.00,,,0.00,,2013-03-04 17:32:00,
2013-03-04 12:42:00,43.0,23.0,30.07,WSW,257,2.0,6.0,44,0.00,,,0.00,,2013-03-04 17:42:00,
2013-03-04 12:52:00,43.0,22.0,30.06,North,9,3.0,7.0,42,0.00,,,0.00,,2013-03-04 17:52:00,
2013-03-04 13:02:00,43.0,21.0,30.06,SSW,213,2.0,8.0,41,0.00,,,0.00,,2013-03-04 18:02:00,
2013-03-04 13:11:00,43.0,21.0,30.06,SSW,213,2.0,8.0,41,0.00,,,0.00,,2013-03-04 18:11:00,
2013-03-04 13:22:00,43.0,20.0,30.05,WSW,253,3.0,10.0,40,0.00,,,0.00,,2013-03-04 18:22:00,
2013-03-04 13:32:00,43.0,21.0,30.04,WNW,296,3.0,8.0,41,0.00,,,0.00,,2013-03-04 18:32:00,
2013-03-04 13:42:00,43.0,21.0,30.04,WNW,296,3.0,8.0,41,0.00,,,0.00,,2013-03-04 18:42:00,
2013-03-04 13:52:00,44.0,22.0,30.03,West,274,1.0,5.0,42,0.00,,,0.00,,2013-03-04 18:52:00,
2013-03-04 14:02:00,44.0,22.0,30.03,WSW,248,2.0,9.0,41,0.00,,,0.00,,2013-03-04 19:02:00,
2013-03-04 14:12:00,44.0,22.0,30.03,WSW,248,2.0,9.0,41,0.00,,,0.00,,2013-03-04 19:12:00,
2013-03-04 14:22:00,45.0,21.0,30.03,WNW,288,3.0,9.0,38,0.00,,,0.00,,2013-03-04 19:22:00,
2013-03-04 14:32:00,45.0,20.0,30.03,WSW,250,2.0,7.0,36,0.00,,,0.00,,2013-03-04 19:32:00,
2013-03-04 14:42:00,45.0,20.0,30.03,WSW,250,2.0,7.0,36,0.00,,,0.00,,2013-03-04 19:42:00,
2013-03-04 14:52:00,45.0,21.0,30.03,SSW,212,0.0,5.0,38,0.00,,,0.00,,2013-03-04 19:52:00,
2013-03-04 15:02:00,45.0,20.0,30.03,WNW,283,2.0,6.0,36,0.00,,,0.00,,2013-03-04 20:02:00,
2013-03-04 15:12:00,45.0,20.0,30.03,WNW,283,2.0,6.0,36,0.00,,,0.00,,2013-03-04 20:12:00,
2013-03-04 15:22:00,46.0,20.0,30.03,WNW,293,3.0,6.0,35,0.00,,,0.00,,2013-03-04 20:22:00,
2013-03-04 15:32:00,47.0,22.0,30.03,NE,34,1.0,5.0,37,0.00,,,0.00,,2013-03-04 20:32:00,
2013-03-04 15:42:00,47.0,22.0,30.03,NE,34,1.0,5.0,37,0.00,,,0.00,,2013-03-04 20:42:00,
2013-03-04 15:52:00,47.0,21.0,30.03,WNW,295,2.0,5.0,35,0.00,,,0.00,,2013-03-04 20:52:00,
2013-03-04 16:02:00,47.0,21.0,30.03,WNW,294,2.0,6.0,36,0.00,,,0.00,,2013-03-04 21:02:00,
2013-03-04 16:12:00,47.0,21.0,30.03,WNW,294,2.0,6.0,36,0.00,,,0.00,,2013-03-04 21:12:00,
2013-03-04 16:22:00,47.0,21.0,30.03,SW,218,1.0,6.0,36,0.00,,,0.00,,2013-03-04 21:22:00,
2013-03-04 16:32:00,47.0,22.0,30.03,West,281,2.0,5.0,37,0.00,,,0.00,,2013-03-04 21:32:00,
2013-03-04 16:42:00,47.0,22.0,30.03,West,281,2.0,5.0,37,0.00,,,0.00,,2013-03-04 21:42:00,
2013-03-04 16:52:00,47.0,22.0,30.02,WNW,285,0.0,6.0,37,0.00,,,0.00,,2013-03-04 21:52:00,
2013-03-04 17:02:00,46.0,21.0,30.03,WSW,248,2.0,4.0,37,0.00,,,0.00,,2013-03-04 22:02:00,
2013-03-04 17:12:00,46.0,21.0,30.03,WSW,248,2.0,4.0,37,0.00,,,0.00,,2013-03-04 22:12:00,
2013-03-04 17:22:00,46.0,22.0,30.03,WSW,256,0.0,5.0,39,0.00,,,0.00,,2013-03-04 22:22:00,
2013-03-04 17:32:00,46.0,22.0,30.03,West,278,0.0,4.0,39,0.00,,,0.00,,2013-03-04 22:32:00,
2013-03-04 17:42:00,46.0,22.0,30.03,West,278,0.0,4.0,39,0.00,,,0.00,,2013-03-04 22:42:00,
2013-03-04 17:52:00,45.0,23.0,30.03,West,278,0.0,3.0,41,0.00,,,0.00,,2013-03-04 22:52:00,
2013-03-04 18:02:00,45.0,23.0,30.04,West,276,0.0,2.0,42,0.00,,,0.00,,2013-03-04 23:02:00,
2013-03-04 18:11:00,45.0,23.0,30.04,West,276,0.0,2.0,42,0.00,,,0.00,,2013-03-04 23:11:00,
2013-03-04 18:22:00,44.0,24.0,30.05,West,268,0.0,2.0,45,0.00,,,0.00,,2013-03-04 23:22:00,
2013-03-04 18:32:00,43.0,26.0,30.05,West,269,0.0,0.0,50,0.00,,,0.00,,2013-03-04 23:32:00,
2013-03-04 18:42:00,43.0,26.0,30.05,West,269,0.0,0.0,50,0.00,,,0.00,,2013-03-04 23:42:00,
2013-03-04 18:52:00,41.0,25.0,30.06,West,274,0.0,0.0,52,0.00,,,0.00,,2013-03-04 23:52:00,
2013-03-04 19:02:00,40.0,25.0,30.07,West,274,0.0,1.0,54,0.00,,,0.00,,2013-03-05 00:02:00,
2013-03-04 19:12:00,40.0,25.0,30.07,West,274,0.0,1.0,54,0.00,,,0.00,,2013-03-05 00:12:00,
2013-03-04 19:22:00,39.0,25.0,30.07,West,274,0.0,0.0,56,0.00,,,0.00,,2013-03-05 00:22:00,
2013-03-04 19:32:00,39.0,26.0,30.08,North,360,0.0,1.0,59,0.00,,,0.00,,2013-03-05 00:32:00,
2013-03-04 19:42:00,39.0,26.0,30.08,North,360,0.0,1.0,59,0.00,,,0.00,,2013-03-05 00:42:00,
2013-03-04 19:51:00,38.0,25.0,30.08,North,360,0.0,0.0,60,0.00,,,0.00,,2013-03-05 00:51:00,
2013-03-04 20:02:00,38.0,26.0,30.09,NW,314,0.0,1.0,61,0.00,,,0.00,,2013-03-05 01:02:00,
2013-03-04 20:12:00,38.0,26.0,30.09,NW,314,0.0,1.0,61,0.00,,,0.00,,2013-03-05 01:12:00,
2013-03-04 20:22:00,38.0,27.0,30.09,NW,326,0.0,1.0,63,0.00,,,0.00,,2013-03-05 01:22:00,
2013-03-04 20:33:00,37.0,25.0,30.09,NNW,342,0.0,1.0,61,0.00,,,0.00,,2013-03-05 01:33:00,
2013-03-04 20:42:00,37.0,25.0,30.09,NNW,342,0.0,1.0,61,0.00,,,0.00,,2013-03-05 01:42:00,
2013-03-04 20:52:00,37.0,26.0,30.09,NNW,338,0.0,1.0,63,0.00,,,0.00,,2013-03-05 01:52:00,
2013-03-04 21:02:00,37.0,27.0,30.09,NNW,328,0.0,1.0,66,0.00,,,0.00,,2013-03-05 02:02:00,
2013-03-04 21:12:00,37.0,27.0,30.09,NNW,328,0.0,1.0,66,0.00,,,0.00,,2013-03-05 02:12:00,
2013-03-04 21:22:00,36.0,26.0,30.09,NW,312,0.0,2.0,68,0.00,,,0.00,,2013-03-05 02:22:00,
2013-03-04 21:32:00,36.0,28.0,30.10,NW,307,0.0,1.0,73,0.00,,,0.00,,2013-03-05 02:32:00,
2013-03-04 21:42:00,36.0,28.0,30.10,NW,307,0.0,1.0,73,0.00,,,0.00,,2013-03-05 02:42:00,
2013-03-04 21:52:00,36.0,28.0,30.11,NW,309,0.0,1.0,73,0.00,,,0.00,,2013-03-05 02:52:00,
2013-03-04 22:02:00,36.0,29.0,30.10,NW,322,0.0,1.0,74,0.00,,,0.00,,2013-03-05 03:02:00,
2013-03-04 22:12:00,36.0,29.0,30.10,NW,322,0.0,1.0,74,0.00,,,0.00,,2013-03-05 03:12:00,
2013-03-04 22:22:00,36.0,28.0,30.11,NW,314,0.0,1.0,73,0.00,,,0.00,,2013-03-05 03:22:00,
2013-03-04 22:32:00,36.0,28.0,30.11,NW,304,0.0,1.0,73,0.00,,,0.00,,2013-03-05 03:32:00,
2013-03-04 22:42:00,36.0,28.0,30.11,NW,304,0.0,1.0,73,0.00,,,0.00,,2013-03-05 03:42:00,
2013-03-04 22:52:00,36.0,29.0,30.11,WNW,303,0.0,1.0,75,0.00,,,0.00,,2013-03-05 03:52:00,
2013-03-04 23:02:00,36.0,29.0,30.12,WNW,301,0.0,0.0,75,0.00,,,0.00,,2013-03-05 04:02:00,
2013-03-04 23:12:00,36.0,29.0,30.12,WNW,301,0.0,0.0,75,0.00,,,0.00,,2013-03-05 04:12:00,
2013-03-04 23:22:00,37.0,30.0,30.11,NW,326,1.0,2.0,75,0.00,,,0.00,,2013-03-05 04:22:00,
2013-03-04 23:32:00,36.0,29.0,30.11,NW,312,0.0,2.0,75,0.00,,,0.00,,2013-03-05 04:32:00,
2013-03-04 23:42:00,36.0,29.0,30.11,NW,312,0.0,2.0,75,0.00,,,0.00,,2013-03-05 04:42:00,
2013-03-04 23:52:00,36.0,29.0,30.11,NNW,328,0.0,2.0,75,0.00,,,0.00,,2013-03-05 04:52:00,